Tracking 17887 objects as of 11-December-2016
HD Live streaming from Space Station
objects crossing your sky now

TDRS 3

Track TDRS 3 now!
TDRS 3 is classified as:


NORAD ID: 19548
Int'l Code: 1988-091B
Perigee: 35,632.4 km
Apogee: 35,954.9 km
Inclination: 14.9 °
Period: 1,436.1 minutes
Semi major axis: 42164 km
RCS: 38.9601 m2 (large)
Launch date: September 29, 1988
Source: United States (US)
Launch site: AIR FORCE EASTERN TEST RANGE (AFETR)

Backup; still partially operational.
Your satellite tracking list
Your tracking list is empty





NASA's NSSDC Master Catalog

Two Line Element Set (TLE):
1 19548U 88091B   16345.49781012 -.00000302  00000-0  00000+0 0  9999
2 19548  14.8631  10.1214 0038236 302.8240 243.7541  1.00272120 90518
Source of the keplerian elements: AFSPC